Temp
-7 -7 -8 -9 -9 -9 -8 -8 -8 -8 -8 -7 -7 -7 -7 -7 -7 -7 -7 -7 -7 -7 -7 -7 -7 -7 -7 -7 -7 -7 -7 -7 -8 -8 -8 -8 -8 -8 -8 -8 -8 -8 -8 -8
-8 -8 -9 -8 -8 -8 -8 -9 -9 -9 -8 -8 -8 -7 -7 -7 -7 -7 -7 -7 -7 -7 -7 -7 -7 -7 -7 -7 -7 -7 -7 -7 -7 -7 -8 -8 -8 -8 -8 -8 -8 -8 -8 -8
-8 -8 -8 -8 -9 -9 -9 -9 -10 -9 -8 -8 -8 -8 -8 -8 -7 -7 -8 -8 -7 -7 -7 -7 -7 -7 -7 -7 -7 -7 -7 -7 -7 -7 -8 -8 -8 -8 -8 -8 -8 -8 -8 -8
-7 -8 -8 -8 -9 -9 -11 -11 -9 -9 -9 -8 -8 -7 -8 -8 -8 -8 -8 -8 -8 -7 -8 -7 -8 -7 -7 -7 -7 -6 -7 -7 -8 -8 -8 -8 -7 -7 -7 -7 -8 -8 -8 -8
-9 -9 -9 -9 -10 -10 -12 -11 -10 -10 -10 -9 -9 -9 -9 -9 -9 -8 -8 -8 -8 -8 -7 -8 -7 -7 -7 -7 -7 -7 -7 -7 -7 -8 -8 -8 -7 -7 -7 -8 -7 -7 -7 -7
-9 -9 -9 -10 -10 -10 -11 -11 -10 -10 -11 -10 -9 -10 -9 -9 -9 -9 -8 -8 -8 -8 -8 -7 -7 -7 -7 -7 -7 -7 -7 -7 -7 -7 -8 -8 -8 -7 -8 -8 -8 -7 -8 -7
-9 -9 -10 -10 -10 -10 -11 -12 -11 -11 -10 -10 -9 -9 -9 -9 -9 -8 -8 -8 -8 -8 -8 -8 -7 -7 -7 -7 -7 -7 -6 -7 -7 -7 -7 -8 -8 -7 -8 -7 -7 -7 -7 -7
-10 -10 -10 -10 -11 -11 -10 -11 -10 -10 -9 -10 -10 -10 -10 -9 -9 -9 -8 -8 -8 -8 -7 -7 -8 -7 -8 -7 -7 -7 -7 -7 -7 -7 -7 -8 -8 -8 -8 -7 -7 -7 -7 -7
-11 -12 -10 -10 -11 -12 -12 -11 -10 -10 -10 -11 -10 -11 -9 -10 -10 -9 -9 -8 -8 -9 -9 -8 -8 -8 -8 -7 -7 -7 -7 -7 -7 -7 -6 -8 -8 -8 -7 -7 -7 -7 -7 -7
-11 -12 -11 -11 -11 -11 -11 -11 -11 -11 -11 -10 -10 -10 -11 -9 -9 -9 -9 -9 -9 -8 -9 -9 -8 -8 -8 -8 -7 -7 -7 -7 -6 -7 -7 -7 -8 -8 -7 -7 -7 -7 -7 -7
-11 -11 -11 -11 -11 -12 -11 -12 -11 -11 -11 -11 -10 -10 -10 -9 -9 -9 -9 -9 -9 -9 -9 -9 -8 -8 -8 -8 -7 -7 -8 -7 -7 -7 -7 -7 -7 -7 -7 -7 -7 -7 -7 -7
-12 -12 -11 -12 -11 -12 -11 -12 -12 -11 -11 -11 -10 -11 -9 -9 -9 -9 -9 -8 -8 -8 -8 -9 -9 -8 -8 -7 -7 -7 -8 -7 -7 -7 -7 -7 -7 -7 -7 -7 -7 -7 -7 -7
-11 -12 -11 -11 -11 -11 -11 -11 -10 -12 -11 -11 -11 -10 -9 -9 -9 -9 -8 -8 -8 -8 -8 -8 -9 -9 -8 -7 -7 -7 -6 -7 -7 -7 -7 -7 -7 -7 -7 -7 -7 -7 -7 -7
-12 -12 -11 -10 -11 -11 -11 -11 -11 -12 -11 -11 -11 -11 -9 -9 -8 -8 -8 -9 -9 -8 -8 -8 -8 -8 -8 -8 -7 -7 -7 -7 -7 -7 -7 -7 -7 -7 -7 -7 -7 -7 -7 -7
-12 -12 -12 -11 -11 -11 -12 -12 -11 -10 -11 -11 -11 -10 -9 -9 -9 -8 -8 -9 -8 -9 -9 -9 -8 -8 -8 -8 -7 -7 -7 -7 -7 -7 -7 -7 -7 -7 -7 -7 -8 -7 -7 -7
-11 -12 -12 -12 -11 -11 -12 -11 -10 -10 -10 -9 -9 -9 -9 -9 -9 -9 -9 -9 -8 -9 -9 -8 -8 -8 -8 -7 -7 -7 -7 -7 -7 -8 -8 -8 -7 -7 -7 -7 -7 -7 -7 -7
-12 -12 -12 -12 -12 -12 -11 -10 -10 -9 -9 -9 -9 -9 -8 -9 -9 -8 -9 -9 -9 -9 -8 -8 -8 -8 -8 -7 -7 -7 -7 -7 -7 -8 -8 -7 -7 -7 -7 -7 -7 -7 -7 -6
-12 -12 -12 -12 -11 -12 -12 -11 -10 -10 -9 -9 -9 -9 -9 -9 -9 -8 -9 -9 -9 -9 -9 -9 -9 -8 -8 -8 -8 -7 -7 -7 -7 -7 -7 -7 -7 -7 -7 -7 -7 -7 -7 -7
-12 -12 -12 -12 -12 -12 -11 -11 -10 -10 -9 -9 -9 -9 -9 -9 -9 -9 -9 -9 -9 -9 -9 -9 -10 -9 -9 -8 -8 -7 -7 -7 -7 -7 -8 -7 -7 -7 -8 -7 -8 -8 -7 -7
-12 -12 -13 -13 -12 -12 -12 -13 -10 -10 -9 -10 -9 -9 -9 -9 -9 -9 -9 -9 -9 -9 -10 -9 -10 -10 -10 -9 -9 -8 -8 -8 -7 -8 -8 -7 -8 -7 -8 -8 -8 -8 -7 -7
-12 -12 -13 -13 -13 -12 -12 -12 -12 -10 -11 -9 -9 -9 -9 -9 -9 -9 -9 -9 -10 -10 -10 -10 -10 -9 -10 -9 -10 -9 -9 -9 -9 -8 -8 -8 -8 -8 -8 -8 -7 -7 -7 -7
-12 -13 -12 -12 -13 -13 -11 -12 -12 -11 -10 -10 -9 -9 -9 -9 -9 -9 -9 -10 -10 -10 -10 -10 -10 -10 -10 -10 -10 -10 -11 -11 -11 -10 -10 -9 -9 -9 -9 -9 -8 -7 -7 -7
-13 -13 -13 -13 -12 -13 -12 -13 -12 -11 -11 -10 -10 -9 -10 -9 -9 -10 -10 -10 -10 -10 -10 -11 -10 -10 -10 -10 -10 -10 -10 -11 -11 -11 -12 -11 -11 -11 -10 -9 -8 -8 -8 -8
-13 -13 -13 -13 -13 -13 -12 -13 -12 -11 -11 -10 -10 -10 -10 -9 -10 -10 -10 -10 -10 -10 -11 -11 -11 -11 -11 -11 -10 -10 -10 -10 -11 -11 -11 -11 -12 -11 -11 -11 -10 -10 -9 -9
-13 -13 -13 -13 -13 -13 -13 -12 -12 -11 -11 -11 -11 -10 -10 -10 -10 -10 -10 -10 -10 -10 -11 -11 -11 -11 -11 -11 -11 -11 -10 -10 -10 -10 -10 -10 -10 -10 -10 -11 -10 -10 -10 -9
-13 -13 -13 -13 -13 -13 -12 -12 -12 -12 -12 -11 -11 -11 -11 -11 -11 -11 -11 -10 -11 -11 -11 -11 -11 -11 -11 -11 -11 -11 -11 -11 -10 -10 -10 -10 -10 -10 -10 -10 -9 -9 -10 -9
Height
5868 5870 5872 5873 5876 5877 5880 5881 5882 5883 5885 5886 5886 5885 5884 5884 5884 5885 5887 5888 5888 5890 5890 5891 5893 5893 5894 5894 5895 5896 5896 5897 5900 5903 5906 5909 5911 5914 5917 5920 5922 5924 5926 5928
5865 5866 5867 5869 5871 5874 5877 5879 5880 5882 5884 5885 5885 5886 5885 5885 5885 5886 5886 5888 5888 5889 5890 5891 5892 5893 5893 5893 5894 5895 5896 5897 5899 5901 5904 5908 5910 5913 5916 5919 5921 5924 5926 5928
5860 5862 5863 5865 5868 5871 5875 5877 5877 5879 5882 5884 5886 5886 5886 5886 5886 5885 5886 5887 5888 5889 5889 5889 5890 5892 5892 5893 5893 5893 5895 5897 5899 5901 5905 5907 5910 5913 5916 5918 5920 5923 5926 5928
5856 5857 5859 5862 5864 5868 5875 5875 5875 5877 5880 5886 5885 5886 5885 5886 5886 5885 5886 5887 5887 5887 5886 5885 5888 5890 5892 5892 5892 5893 5894 5896 5898 5901 5904 5906 5909 5911 5914 5917 5919 5922 5925 5928
5854 5854 5856 5860 5864 5866 5870 5870 5872 5874 5876 5880 5883 5887 5882 5883 5884 5885 5886 5886 5886 5886 5886 5885 5886 5889 5890 5891 5892 5893 5893 5894 5896 5900 5902 5904 5907 5910 5914 5916 5918 5921 5924 5927
5850 5852 5854 5857 5859 5862 5865 5868 5870 5872 5878 5881 5879 5882 5881 5881 5881 5883 5884 5885 5885 5885 5885 5885 5884 5887 5888 5890 5891 5892 5893 5894 5894 5897 5900 5902 5906 5909 5912 5915 5916 5918 5921 5923
5849 5850 5851 5853 5857 5860 5863 5867 5874 5877 5879 5881 5874 5878 5880 5876 5877 5879 5880 5881 5882 5882 5882 5883 5884 5883 5885 5887 5888 5889 5891 5893 5893 5894 5897 5900 5903 5907 5910 5912 5914 5915 5918 5921
5848 5850 5849 5851 5855 5858 5860 5868 5874 5874 5876 5878 5871 5872 5875 5872 5873 5873 5874 5874 5876 5877 5878 5878 5880 5881 5882 5884 5886 5888 5889 5891 5893 5892 5895 5897 5901 5903 5907 5910 5912 5914 5916 5920
5847 5851 5849 5850 5852 5858 5859 5860 5868 5868 5870 5871 5873 5869 5868 5867 5867 5868 5869 5869 5871 5873 5873 5875 5877 5878 5878 5880 5883 5885 5887 5888 5891 5891 5893 5894 5897 5900 5903 5907 5910 5912 5914 5917
5845 5848 5847 5848 5850 5853 5855 5861 5863 5864 5866 5868 5869 5865 5866 5863 5862 5863 5864 5865 5866 5868 5868 5870 5872 5874 5875 5877 5878 5881 5884 5885 5887 5890 5892 5893 5895 5896 5899 5903 5907 5910 5911 5914
5843 5847 5847 5847 5848 5853 5851 5853 5855 5859 5861 5863 5865 5867 5860 5860 5860 5859 5860 5860 5861 5862 5863 5864 5866 5868 5870 5872 5875 5876 5878 5881 5884 5886 5889 5891 5893 5894 5896 5900 5903 5907 5909 5911
5840 5845 5847 5847 5845 5848 5849 5853 5853 5856 5858 5855 5856 5860 5856 5856 5856 5856 5856 5857 5856 5857 5858 5859 5860 5862 5865 5867 5868 5869 5869 5873 5877 5880 5884 5887 5889 5892 5894 5896 5900 5903 5906 5908
5837 5839 5845 5843 5843 5843 5845 5847 5848 5851 5852 5853 5854 5859 5852 5851 5852 5851 5852 5853 5853 5851 5851 5852 5855 5856 5857 5859 5861 5863 5863 5867 5871 5874 5879 5883 5886 5889 5891 5892 5895 5899 5902 5905
5833 5837 5840 5845 5845 5844 5841 5842 5843 5845 5850 5853 5851 5850 5847 5847 5847 5847 5847 5847 5847 5845 5844 5845 5847 5850 5851 5852 5855 5857 5857 5859 5866 5870 5875 5878 5882 5884 5887 5889 5890 5894 5898 5901
5828 5832 5835 5837 5836 5837 5839 5841 5839 5839 5841 5843 5846 5843 5841 5842 5841 5842 5842 5841 5840 5840 5840 5840 5841 5842 5844 5846 5848 5850 5854 5857 5861 5866 5870 5873 5875 5879 5881 5885 5887 5889 5894 5897
5823 5827 5828 5830 5830 5831 5832 5832 5833 5834 5836 5836 5836 5837 5836 5837 5836 5837 5837 5836 5836 5836 5835 5835 5835 5835 5836 5838 5841 5843 5847 5852 5855 5859 5863 5866 5870 5873 5876 5879 5882 5884 5887 5891
5816 5820 5821 5826 5824 5825 5825 5828 5829 5829 5829 5830 5831 5832 5832 5831 5831 5832 5832 5832 5831 5831 5830 5829 5830 5829 5830 5832 5834 5836 5840 5844 5848 5851 5855 5859 5863 5866 5869 5873 5876 5879 5881 5883
5808 5811 5815 5820 5816 5818 5823 5820 5822 5823 5823 5825 5826 5825 5825 5825 5825 5826 5826 5827 5828 5827 5825 5824 5825 5824 5826 5825 5828 5830 5834 5835 5838 5843 5847 5850 5854 5857 5861 5865 5868 5871 5874 5877
5799 5804 5808 5811 5812 5815 5813 5815 5815 5816 5819 5819 5819 5820 5820 5820 5820 5820 5820 5821 5823 5823 5823 5823 5822 5822 5821 5822 5823 5821 5826 5831 5833 5835 5838 5841 5845 5849 5853 5856 5860 5862 5864 5867
5789 5794 5798 5801 5804 5808 5811 5807 5808 5810 5813 5812 5813 5814 5814 5815 5815 5815 5815 5816 5817 5819 5819 5820 5819 5819 5818 5818 5820 5819 5820 5821 5820 5826 5829 5833 5837 5838 5843 5846 5849 5852 5855 5857
5776 5782 5786 5794 5795 5800 5801 5802 5803 5805 5809 5806 5807 5808 5809 5810 5810 5811 5811 5812 5813 5813 5814 5816 5816 5816 5816 5816 5816 5816 5816 5815 5816 5819 5822 5825 5828 5831 5835 5837 5839 5839 5842 5844
5767 5773 5778 5787 5788 5792 5794 5797 5798 5799 5799 5800 5801 5802 5803 5804 5805 5807 5807 5807 5808 5809 5810 5810 5811 5812 5812 5812 5813 5814 5814 5813 5813 5814 5814 5815 5818 5821 5825 5828 5830 5831 5832 5832
5760 5765 5773 5776 5782 5786 5787 5788 5790 5793 5793 5794 5795 5796 5797 5799 5800 5802 5802 5803 5803 5803 5804 5804 5805 5806 5807 5808 5808 5809 5808 5808 5808 5809 5809 5810 5812 5815 5818 5821 5820 5821 5823 5824
5747 5755 5762 5769 5772 5776 5780 5781 5784 5786 5788 5788 5789 5790 5791 5793 5795 5796 5797 5797 5797 5797 5797 5798 5799 5800 5801 5801 5802 5804 5804 5804 5805 5805 5807 5809 5811 5813 5814 5815 5815 5816 5816 5817
5735 5744 5752 5759 5762 5768 5771 5775 5778 5780 5782 5782 5782 5783 5785 5786 5788 5789 5790 5792 5792 5791 5791 5791 5792 5792 5794 5795 5796 5797 5798 5799 5800 5801 5803 5804 5806 5809 5809 5811 5812 5813 5812 5813
5727 5736 5744 5752 5756 5760 5764 5768 5772 5774 5776 5776 5777 5778 5779 5780 5781 5782 5784 5784 5785 5785 5785 5785 5785 5785 5786 5787 5789 5790 5792 5792 5794 5795 5796 5798 5799 5800 5802 5804 5806 5807 5806 5807
Wind_Speed
13 16 17 17 21 26 19 19 14 8 7 9 9 8 3 6 11 12 11 13 10 10 9 8 9 8 9 12 9 8 9 16 18 21 21 22 20 19 17 16 18 18 14 12
15 17 20 21 20 20 19 17 14 12 7 9 9 6 5 5 7 4 7 15 9 9 9 10 10 10 10 11 13 10 9 14 17 21 20 20 20 19 18 17 16 18 16 14
16 20 21 23 23 21 19 18 17 16 13 8 8 7 6 4 5 4 3 4 10 13 13 12 10 11 11 11 12 10 10 12 14 18 17 19 21 20 18 18 17 20 18 15
18 21 22 24 24 21 12 18 21 19 15 7 13 5 10 10 9 8 6 6 8 10 15 20 11 12 13 13 14 13 14 15 13 16 15 20 21 20 19 18 17 18 19 17
17 18 21 20 18 16 16 21 19 19 17 15 14 13 15 12 12 13 11 9 10 10 9 14 14 14 14 14 14 15 15 16 15 18 19 20 19 18 17 18 20 19 21 19
14 15 15 17 20 18 19 18 18 18 10 9 18 15 16 19 18 17 15 13 12 12 13 10 13 14 14 14 16 15 17 17 17 17 19 21 19 17 19 19 21 21 20 21
12 14 15 15 16 15 16 12 6 6 11 13 18 17 19 20 18 19 19 18 18 19 17 18 15 19 16 16 17 16 16 17 17 18 20 22 22 19 21 23 22 21 20 19
10 10 15 14 13 10 12 14 11 8 10 14 24 18 16 21 21 23 24 24 22 19 22 23 16 15 15 15 17 18 18 18 19 18 19 21 22 22 23 22 22 21 22 21
9 11 9 10 13 13 13 15 16 12 19 18 13 16 18 21 20 21 21 21 20 18 17 19 19 17 16 20 19 22 21 20 20 20 18 19 21 23 24 23 20 20 20 22
11 8 9 8 8 10 12 12 12 14 16 15 14 15 13 17 19 18 16 15 14 14 16 16 17 22 16 19 23 24 23 23 23 22 20 20 21 22 21 21 21 22 22 21
9 10 10 10 9 11 11 12 12 15 17 16 14 13 18 15 13 13 15 17 18 16 16 17 17 18 18 19 21 25 31 28 26 24 23 22 22 22 20 20 21 21 21 21
14 9 8 9 14 16 14 10 10 7 13 11 16 14 14 16 13 13 14 13 15 18 22 20 20 19 18 21 22 21 32 32 31 28 26 26 24 24 22 23 22 19 19 19
16 16 14 13 15 19 18 13 10 12 15 12 11 12 14 18 19 17 16 17 17 19 20 26 24 23 21 20 21 20 21 35 34 30 28 27 25 25 25 26 25 22 21 20
19 15 18 12 12 13 17 19 16 14 11 13 15 16 16 16 18 17 17 19 20 20 19 22 27 25 27 22 18 21 20 29 30 28 29 27 28 27 26 26 24 23 23 22
23 21 20 20 20 20 14 15 19 19 15 17 17 19 22 18 17 17 15 16 17 17 15 17 22 25 29 26 20 21 21 27 27 27 28 29 29 31 31 29 28 27 25 25
22 21 27 22 22 20 19 21 21 19 17 19 23 22 22 18 19 17 17 17 17 14 17 17 19 23 25 26 26 25 28 26 26 30 31 31 32 31 33 34 34 31 30 30
26 24 23 20 26 22 26 23 21 21 21 19 20 20 18 19 19 19 17 16 16 17 19 17 15 19 23 26 29 30 31 31 29 28 28 33 32 32 35 37 38 36 35 34
30 29 24 20 30 28 18 24 20 20 19 19 17 19 20 19 20 18 17 17 16 13 12 12 13 17 20 31 30 35 32 37 33 35 36 34 36 36 37 39 39 40 40 40
35 29 28 27 28 22 27 19 21 22 19 17 18 18 20 19 17 17 17 16 17 18 11 9 12 13 14 17 22 37 32 38 39 44 38 37 39 37 38 38 45 40 41 42
42 35 32 31 29 26 18 20 20 22 19 21 19 17 17 18 19 18 18 17 15 17 19 15 14 14 13 12 20 30 26 33 44 45 38 44 41 41 41 41 40 41 41 42
48 43 38 32 34 23 22 21 22 22 19 19 18 17 15 17 20 19 19 17 15 15 18 20 19 15 17 15 16 18 20 21 28 52 50 44 42 45 46 40 39 44 47 46
51 46 39 33 33 30 19 20 23 21 20 19 20 20 17 17 19 19 19 19 18 19 20 22 22 18 18 21 22 22 21 18 16 16 24 34 35 30 29 31 33 35 35 37
51 41 37 41 32 29 28 23 24 23 23 22 21 21 21 19 18 19 19 19 20 21 22 23 26 25 24 23 22 21 25 24 22 16 15 15 17 20 20 26 35 26 24 27
47 47 46 41 39 32 32 25 23 22 21 19 19 20 20 17 15 15 17 20 21 22 23 23 22 24 27 28 28 24 23 26 27 26 26 24 26 27 25 26 25 24 21 21
50 47 47 45 38 35 30 27 24 19 16 18 18 18 18 16 15 17 19 20 21 23 24 26 27 27 28 27 29 27 27 26 27 29 32 32 33 33 31 31 32 31 25 24
53 54 50 46 40 34 29 27 25 20 16 16 19 19 18 17 18 19 20 21 23 24 25 25 27 28 30 31 31 31 30 29 30 30 29 30 33 35 34 34 36 35 30 30
Wind_Direction
214 212 211 210 206 210 212 216 216 205 211 203 219 208 193 219 229 188 197 193 182 195 184 179 189 176 175 166 170 177 184 192 185 186 188 189 187 186 181 177 175 174 179 173
220 213 212 216 224 217 207 207 211 214 188 189 189 205 190 157 175 207 193 186 192 200 206 203 194 191 189 185 185 179 179 182 183 190 190 191 188 187 186 182 181 182 179 177
227 217 218 212 216 219 214 209 218 220 213 204 208 215 223 221 228 228 231 215 222 232 226 225 216 213 205 199 184 178 174 177 188 190 193 194 192 188 192 185 186 185 185 179
234 228 220 215 213 218 207 213 219 222 223 232 217 191 231 228 233 247 249 239 234 253 249 238 213 219 212 206 194 188 174 174 181 188 189 191 194 193 195 188 189 192 193 185
235 231 228 222 219 216 192 214 213 219 226 231 222 212 247 229 233 230 235 246 253 260 257 269 244 225 215 210 204 200 192 187 184 191 192 195 200 199 197 189 190 192 196 192
236 230 227 220 219 210 200 204 221 224 217 243 248 210 273 235 235 235 241 244 253 251 245 271 225 221 214 215 210 208 205 200 189 190 197 199 203 203 196 197 197 196 194 195
233 219 216 215 215 215 209 213 226 226 241 229 243 239 238 251 248 251 253 260 258 257 254 253 249 218 212 215 218 214 211 212 201 194 199 205 204 206 204 206 208 201 203 202
217 230 229 212 196 222 217 196 205 244 234 245 263 245 246 239 247 253 255 261 264 259 252 261 241 235 222 229 228 225 220 214 215 201 200 207 209 210 213 211 216 213 211 213
202 203 226 220 215 186 225 212 213 230 246 225 248 260 249 255 254 257 259 259 262 263 261 256 259 236 230 231 228 230 226 224 217 212 209 207 208 213 217 215 216 216 217 214
194 198 205 200 201 203 195 221 232 234 229 240 256 256 233 245 250 251 255 257 259 253 256 261 258 248 249 241 236 230 230 226 229 223 214 214 210 213 214 217 220 218 213 212
210 200 238 220 232 240 242 254 243 218 223 233 248 260 251 243 245 253 256 258 260 258 255 252 246 250 247 253 254 241 228 228 225 228 221 220 222 214 210 213 218 219 212 208
221 212 253 235 236 233 229 214 235 213 289 247 216 226 242 244 241 256 260 257 265 265 254 252 246 240 247 244 251 262 238 214 218 217 227 221 222 224 214 217 223 221 222 218
220 215 225 253 255 234 234 230 219 224 226 237 239 264 244 250 249 259 260 251 267 274 264 247 242 235 229 237 244 255 265 223 214 213 220 225 221 225 222 220 222 226 223 222
234 214 226 229 245 236 233 236 237 237 243 259 259 245 245 252 255 267 268 263 267 268 268 252 240 236 223 224 236 240 251 208 209 214 219 225 227 222 225 227 225 222 226 224
237 234 230 222 229 237 228 234 242 233 240 248 241 244 250 256 265 268 276 263 261 262 257 260 248 241 227 230 218 222 232 233 222 220 222 225 226 228 224 228 230 225 224 222
227 231 238 234 232 239 246 244 241 242 249 251 247 247 256 259 262 268 269 266 259 263 264 257 261 248 230 235 223 218 218 230 233 236 237 229 230 227 231 231 230 230 227 227
233 234 242 236 252 247 248 255 253 246 246 246 248 252 258 260 259 262 263 260 256 266 275 272 264 247 229 226 221 218 220 218 226 233 236 235 232 232 234 235 235 234 234 234
238 237 244 226 245 249 256 256 257 252 243 244 249 257 260 261 258 261 259 254 247 272 278 281 267 250 246 228 219 225 221 232 218 227 230 240 238 244 238 241 235 237 238 239
236 237 236 230 247 254 256 265 253 245 242 246 250 262 260 256 255 255 261 262 250 252 253 255 274 274 273 234 221 227 215 221 225 230 227 234 239 242 242 246 243 245 243 243
236 231 236 248 242 246 260 252 245 247 247 247 258 266 257 252 252 249 258 263 257 243 234 246 266 270 268 268 239 235 239 233 231 236 230 229 237 244 241 247 244 246 244 247
225 226 231 240 247 248 253 252 247 250 249 249 259 268 256 249 252 250 255 254 256 250 241 255 261 265 256 256 252 231 233 241 238 234 236 231 232 244 249 247 249 255 247 250
224 224 233 239 241 235 247 250 244 240 249 254 258 264 258 251 246 245 250 254 259 262 256 252 255 257 251 246 247 254 258 235 236 231 221 227 225 224 229 235 237 250 260 255
231 226 230 238 250 243 254 247 234 236 247 256 262 264 258 256 253 245 249 256 260 263 263 256 254 251 246 239 242 251 260 261 259 250 257 264 253 237 240 248 240 243 242 248
227 229 231 237 241 233 238 236 227 232 245 255 257 255 255 255 249 242 248 250 252 254 255 251 248 253 249 248 245 249 254 251 247 254 257 258 261 265 266 265 267 263 266 260
222 224 228 231 236 231 226 227 221 232 248 255 259 257 254 247 244 244 243 248 252 255 257 255 252 252 252 250 243 247 252 252 249 249 249 250 251 247 250 256 260 262 264 263
221 223 226 230 234 236 223 226 223 233 242 257 257 251 251 250 255 253 260 263 257 257 259 257 256 256 256 253 249 248 248 250 250 250 251 254 254 252 253 249 251 255 257 261